C/2017 U5 ( PanSTARRS )

Japanese version
Home page
Updated on December 5, 2017

---------------------------------------------------------------------

* Profile

Discovery Date October 30, 2017
Magnitude 21.3 mag
Discoverer Pan-STARRS 1 telescope (Haleakala)

* Orbital Elements

Epoch 2018 Jan. 2.0 TT = JDT 2458120.5
T 2017 Dec. 18.48075 TT                                 MPCW
q   4.3273923            (2000.0)            P               Q
n   0.01414438     Peri.  262.04774     +0.40425154     -0.90977451
a  16.9335026      Node   163.12754     +0.91352180     +0.39648867
e   0.7444479      Incl.   18.95795     +0.04537200     +0.12291083
P  69.68
From 69 observations 2017 Oct. 30-Nov. 27, mean residual 0".4.

* Magnitudes Graph

        m1 = 11.5 + 5 log d + 10.0 log r

---------------------------------------------------------------------

The orbital elements are published on M.P.E.C. 2017-X06.
The magnitudes graphs are made with Comet for Windows.

---------------------------------------------------------------------

Copyright(C) Seiichi Yoshida (comet@aerith.net). All rights reserved.